Time,TemperatureF,DewpointF,PressureIn,WindDirection,WindDirectionDegrees,WindSpeedMPH,WindSpeedGustMPH,Humidity,HourlyPrecipIn,Conditions,Clouds,dailyrainin,SolarRadiationWatts/m^2,SoftwareType,DateUTC
2013-09-03 00:00:00,71.3,65.9,29.83,West,266,0.0,1.0,83,0.00,RA,SCT,0.00,0.0,WeatherDisplay:10.37,2013-09-03 04:00:00,
2013-09-03 00:05:00,71.1,66.0,29.83,West,266,1.0,2.0,84,0.00,RA,SCT,0.00,0.0,WeatherDisplay:10.37,2013-09-03 04:05:00,
2013-09-03 00:10:00,70.8,66.1,29.82,West,266,0.0,5.0,85,0.00,,SCT,0.00,0.0,WeatherDisplay:10.37,2013-09-03 04:10:00,
2013-09-03 00:15:00,70.6,66.2,29.82,West,266,0.0,0.0,86,0.00,,SCT,0.00,0.0,WeatherDisplay:10.37,2013-09-03 04:15:00,
2013-09-03 00:20:00,70.4,66.0,29.82,West,266,0.0,0.0,86,0.00,,SCT,0.00,0.0,WeatherDisplay:10.37,2013-09-03 04:20:00,
2013-09-03 00:25:00,70.4,66.0,29.82,West,266,0.0,0.0,86,0.00,,SCT,0.00,0.0,WeatherDisplay:10.37,2013-09-03 04:25:00,
2013-09-03 00:30:00,70.3,66.2,29.82,West,266,0.0,1.0,87,0.00,,SCT,0.00,0.0,WeatherDisplay:10.37,2013-09-03 04:30:00,
2013-09-03 00:35:00,70.1,66.1,29.82,West,266,0.0,2.0,87,0.00,,SCT,0.00,0.0,WeatherDisplay:10.37,2013-09-03 04:35:00,
2013-09-03 00:40:00,69.9,66.2,29.82,West,266,0.0,1.0,88,0.00,,SCT,0.00,0.0,WeatherDisplay:10.37,2013-09-03 04:40:00,
2013-09-03 00:45:00,69.7,66.0,29.83,West,266,0.0,0.0,88,0.00,,SCT,0.00,0.0,WeatherDisplay:10.37,2013-09-03 04:45:00,
2013-09-03 00:50:00,69.5,65.8,29.83,West,266,0.0,3.0,88,0.00,,SCT,0.00,0.0,WeatherDisplay:10.37,2013-09-03 04:50:00,
2013-09-03 00:55:00,69.4,66.0,29.83,West,266,1.0,4.0,89,0.00,,SCT,0.00,0.0,WeatherDisplay:10.37,2013-09-03 04:55:00,
2013-09-03 01:00:00,69.2,65.8,29.83,West,266,0.0,4.0,89,0.00,,SCT,0.00,0.0,WeatherDisplay:10.37,2013-09-03 05:00:00,
2013-09-03 01:05:00,69.1,65.7,29.82,West,266,0.0,0.0,89,0.00,,SCT,0.00,0.0,WeatherDisplay:10.37,2013-09-03 05:05:00,
2013-09-03 01:10:00,69.0,65.6,29.82,West,266,0.0,0.0,89,0.00,,SCT,0.00,0.0,WeatherDisplay:10.37,2013-09-03 05:10:00,
2013-09-03 01:15:00,69.0,65.9,29.82,West,266,0.0,0.0,90,0.00,,SCT,0.00,0.0,WeatherDisplay:10.37,2013-09-03 05:15:00,
2013-09-03 01:20:00,69.0,65.9,29.82,West,266,0.0,0.0,90,0.00,,SCT,0.00,0.0,WeatherDisplay:10.37,2013-09-03 05:20:00,
2013-09-03 01:25:00,68.9,65.8,29.82,West,266,0.0,0.0,90,0.00,,SCT,0.00,0.0,WeatherDisplay:10.37,2013-09-03 05:25:00,
2013-09-03 01:30:00,68.8,65.8,29.82,West,266,0.0,0.0,90,0.00,,SCT,0.00,0.0,WeatherDisplay:10.37,2013-09-03 05:30:00,
2013-09-03 01:35:00,68.8,65.7,29.81,West,266,0.0,0.0,90,0.00,,SCT,0.00,0.0,WeatherDisplay:10.37,2013-09-03 05:35:00,
2013-09-03 01:40:00,68.9,65.8,29.82,West,266,0.0,0.0,90,0.00,,SCT,0.00,0.0,WeatherDisplay:10.37,2013-09-03 05:40:00,
2013-09-03 01:45:00,68.9,65.8,29.81,West,266,0.0,0.0,90,0.00,,SCT,0.00,0.0,WeatherDisplay:10.37,2013-09-03 05:45:00,
2013-09-03 01:50:00,69.0,66.3,29.81,West,266,0.0,0.0,91,0.00,,SCT,0.00,0.0,WeatherDisplay:10.37,2013-09-03 05:50:00,
2013-09-03 01:55:00,69.0,66.3,29.81,West,266,0.0,0.0,91,0.00,,SCT,0.00,0.0,WeatherDisplay:10.37,2013-09-03 05:55:00,
2013-09-03 02:00:00,68.9,66.2,29.81,West,266,0.0,0.0,91,0.00,,SCT,0.00,0.0,WeatherDisplay:10.37,2013-09-03 06:00:00,
2013-09-03 02:10:00,68.9,66.2,29.81,West,266,0.0,0.0,91,0.00,,SCT,0.00,0.0,WeatherDisplay:10.37,2013-09-03 06:10:00,
2013-09-03 02:15:00,68.9,66.2,29.80,West,266,0.0,0.0,91,0.00,,SCT,0.00,0.0,WeatherDisplay:10.37,2013-09-03 06:15:00,
2013-09-03 02:20:00,68.9,66.2,29.80,West,266,0.0,0.0,91,0.00,,SCT,0.00,0.0,WeatherDisplay:10.37,2013-09-03 06:20:00,
2013-09-03 02:25:00,68.8,66.1,29.80,West,266,0.0,1.0,91,0.00,,SCT,0.00,0.0,WeatherDisplay:10.37,2013-09-03 06:25:00,
2013-09-03 02:30:00,68.8,66.1,29.80,West,266,0.0,0.0,91,0.00,,SCT,0.00,0.0,WeatherDisplay:10.37,2013-09-03 06:30:00,
2013-09-03 02:35:00,68.7,66.0,29.80,West,266,0.0,1.0,91,0.00,,SCT,0.00,0.0,WeatherDisplay:10.37,2013-09-03 06:35:00,
2013-09-03 02:40:00,68.5,65.8,29.80,West,266,0.0,1.0,91,0.00,,SCT,0.00,0.0,WeatherDisplay:10.37,2013-09-03 06:40:00,
2013-09-03 02:45:00,68.5,65.8,29.80,West,266,0.0,0.0,91,0.00,,SCT,0.00,0.0,WeatherDisplay:10.37,2013-09-03 06:45:00,
2013-09-03 02:50:00,68.4,65.7,29.80,West,266,0.0,1.0,91,0.00,,SCT,0.00,0.0,WeatherDisplay:10.37,2013-09-03 06:50:00,
2013-09-03 02:55:00,68.3,65.6,29.81,West,266,0.0,1.0,91,0.00,,SCT,0.00,0.0,WeatherDisplay:10.37,2013-09-03 06:55:00,
2013-09-03 03:00:00,68.2,65.5,29.81,West,266,0.0,0.0,91,0.00,,SCT,0.00,0.0,WeatherDisplay:10.37,2013-09-03 07:00:00,
2013-09-03 03:05:00,68.1,65.4,29.81,West,266,0.0,0.0,91,0.00,,SCT,0.00,0.0,WeatherDisplay:10.37,2013-09-03 07:05:00,
2013-09-03 03:10:00,68.0,65.3,29.81,West,266,0.0,0.0,91,0.00,,SCT,0.00,0.0,WeatherDisplay:10.37,2013-09-03 07:10:00,
2013-09-03 03:15:00,67.9,65.2,29.81,West,266,0.0,0.0,91,0.00,,SCT,0.00,0.0,WeatherDisplay:10.37,2013-09-03 07:15:00,
2013-09-03 03:20:00,67.8,65.1,29.81,West,266,0.0,0.0,91,0.00,,SCT,0.00,0.0,WeatherDisplay:10.37,2013-09-03 07:20:00,
2013-09-03 03:25:00,67.7,65.0,29.81,West,266,0.0,0.0,91,0.00,,SCT,0.00,0.0,WeatherDisplay:10.37,2013-09-03 07:25:00,
2013-09-03 03:30:00,67.7,65.0,29.80,West,266,0.0,0.0,91,0.00,,SCT,0.00,0.0,WeatherDisplay:10.37,2013-09-03 07:30:00,
2013-09-03 03:35:00,67.6,64.9,29.80,West,266,0.0,0.0,91,0.00,,SCT,0.00,0.0,WeatherDisplay:10.37,2013-09-03 07:35:00,
2013-09-03 03:40:00,67.5,64.8,29.80,West,266,0.0,1.0,91,0.00,,SCT,0.00,0.0,WeatherDisplay:10.37,2013-09-03 07:40:00,
2013-09-03 03:45:00,67.4,64.7,29.80,West,266,0.0,0.0,91,0.00,,SCT,0.00,0.0,WeatherDisplay:10.37,2013-09-03 07:45:00,
2013-09-03 03:50:00,67.4,64.7,29.79,West,266,0.0,0.0,91,0.00,,SCT,0.00,0.0,WeatherDisplay:10.37,2013-09-03 07:50:00,
2013-09-03 03:55:00,67.3,64.6,29.80,West,266,0.0,1.0,91,0.00,,SCT,0.00,0.0,WeatherDisplay:10.37,2013-09-03 07:55:00,
2013-09-03 04:00:00,67.1,64.4,29.80,West,266,0.0,1.0,91,0.00,,SCT,0.00,0.0,WeatherDisplay:10.37,2013-09-03 08:00:00,
2013-09-03 04:05:00,67.1,64.4,29.80,West,266,0.0,1.0,91,0.00,,SCT,0.00,0.0,WeatherDisplay:10.37,2013-09-03 08:05:00,
2013-09-03 04:10:00,67.0,64.3,29.80,West,266,0.0,0.0,91,0.00,,SCT,0.00,0.0,WeatherDisplay:10.37,2013-09-03 08:10:00,
2013-09-03 04:15:00,66.9,64.2,29.79,West,266,0.0,0.0,91,0.00,,SCT,0.00,0.0,WeatherDisplay:10.37,2013-09-03 08:15:00,
2013-09-03 04:20:00,66.9,64.2,29.79,West,266,0.0,0.0,91,0.00,,SCT,0.00,0.0,WeatherDisplay:10.37,2013-09-03 08:20:00,
2013-09-03 04:25:00,66.8,64.1,29.79,West,266,0.0,0.0,91,0.00,,SCT,0.00,0.0,WeatherDisplay:10.37,2013-09-03 08:25:00,
2013-09-03 04:30:00,66.8,64.1,29.80,West,266,0.0,0.0,91,0.00,,SCT,0.00,0.0,WeatherDisplay:10.37,2013-09-03 08:30:00,
2013-09-03 04:35:00,66.7,64.0,29.80,West,266,0.0,0.0,91,0.00,,SCT,0.00,0.0,WeatherDisplay:10.37,2013-09-03 08:35:00,
2013-09-03 04:40:00,66.7,64.0,29.79,West,266,0.0,0.0,91,0.00,,SCT,0.00,0.0,WeatherDisplay:10.37,2013-09-03 08:40:00,
2013-09-03 04:45:00,66.7,64.0,29.79,West,266,0.0,0.0,91,0.00,,SCT,0.00,0.0,WeatherDisplay:10.37,2013-09-03 08:45:00,
2013-09-03 04:50:00,66.7,64.0,29.80,West,266,0.0,2.0,91,0.00,,SCT,0.00,0.0,WeatherDisplay:10.37,2013-09-03 08:50:00,
2013-09-03 04:55:00,66.7,64.0,29.80,West,266,0.0,0.0,91,0.00,,SCT,0.00,0.0,WeatherDisplay:10.37,2013-09-03 08:55:00,
2013-09-03 05:00:00,66.7,64.0,29.80,West,266,0.0,0.0,91,0.00,,SCT,0.00,0.0,WeatherDisplay:10.37,2013-09-03 09:00:00,
2013-09-03 05:05:00,66.6,64.2,29.80,West,266,0.0,0.0,92,0.00,,SCT,0.00,0.0,WeatherDisplay:10.37,2013-09-03 09:05:00,
2013-09-03 05:10:00,66.6,64.2,29.80,West,266,0.0,0.0,92,0.00,,SCT,0.00,0.0,WeatherDisplay:10.37,2013-09-03 09:10:00,
2013-09-03 05:15:00,66.5,64.1,29.80,West,266,0.0,0.0,92,0.00,,SCT,0.00,0.0,WeatherDisplay:10.37,2013-09-03 09:15:00,
2013-09-03 05:20:00,66.5,64.1,29.80,West,266,0.0,0.0,92,0.00,,SCT,0.00,0.0,WeatherDisplay:10.37,2013-09-03 09:20:00,
2013-09-03 05:25:00,66.5,64.1,29.80,West,266,0.0,2.0,92,0.00,,SCT,0.00,0.0,WeatherDisplay:10.37,2013-09-03 09:25:00,
2013-09-03 05:30:00,66.4,64.0,29.80,West,266,0.0,1.0,92,0.00,,SCT,0.00,0.0,WeatherDisplay:10.37,2013-09-03 09:30:00,
2013-09-03 05:35:00,66.4,64.0,29.79,West,266,0.0,1.0,92,0.00,,SCT,0.00,0.0,WeatherDisplay:10.37,2013-09-03 09:35:00,
2013-09-03 05:40:00,66.3,63.9,29.79,West,266,0.0,0.0,92,0.00,,SCT,0.00,0.0,WeatherDisplay:10.37,2013-09-03 09:40:00,
2013-09-03 05:45:00,66.3,63.9,29.79,West,266,0.0,0.0,92,0.00,,SCT,0.00,0.0,WeatherDisplay:10.37,2013-09-03 09:45:00,
2013-09-03 05:50:00,66.3,63.9,29.79,West,266,0.0,1.0,92,0.00,,SCT,0.00,0.0,WeatherDisplay:10.37,2013-09-03 09:50:00,
2013-09-03 05:55:00,66.2,63.8,29.80,West,266,0.0,0.0,92,0.00,,SCT,0.00,0.0,WeatherDisplay:10.37,2013-09-03 09:55:00,
2013-09-03 06:00:00,66.1,63.7,29.80,West,266,0.0,0.0,92,0.00,,SCT,0.00,0.0,WeatherDisplay:10.37,2013-09-03 10:00:00,
2013-09-03 06:05:00,66.1,63.7,29.80,West,266,0.0,0.0,92,0.00,,SCT,0.00,0.0,WeatherDisplay:10.37,2013-09-03 10:05:00,
2013-09-03 06:10:00,66.0,63.6,29.80,West,266,0.0,1.0,92,0.00,,SCT,0.00,0.0,WeatherDisplay:10.37,2013-09-03 10:10:00,
2013-09-03 06:15:00,66.0,63.6,29.80,West,266,0.0,0.0,92,0.00,,SCT,0.00,0.0,WeatherDisplay:10.37,2013-09-03 10:15:00,
2013-09-03 06:20:00,65.9,63.5,29.80,West,266,0.0,0.0,92,0.00,,SCT,0.00,0.0,WeatherDisplay:10.37,2013-09-03 10:20:00,
2013-09-03 06:25:00,65.9,63.5,29.81,West,266,0.0,0.0,92,0.00,,SCT,0.00,0.0,WeatherDisplay:10.37,2013-09-03 10:25:00,
2013-09-03 06:30:00,65.8,63.4,29.81,West,266,0.0,0.0,92,0.00,,SCT,0.00,0.0,WeatherDisplay:10.37,2013-09-03 10:30:00,
2013-09-03 06:35:00,65.8,63.4,29.80,West,266,0.0,1.0,92,0.00,,SCT,0.00,0.0,WeatherDisplay:10.37,2013-09-03 10:35:00,
2013-09-03 06:40:00,65.9,63.5,29.80,West,265,0.0,1.0,92,0.00,,SCT,0.00,0.0,WeatherDisplay:10.37,2013-09-03 10:40:00,
2013-09-03 06:45:00,65.9,63.5,29.80,West,266,0.0,1.0,92,0.00,,SCT,0.00,0.0,WeatherDisplay:10.37,2013-09-03 10:45:00,
2013-09-03 06:50:00,65.9,63.5,29.80,West,266,0.0,1.0,92,0.00,,SCT,0.00,0.0,WeatherDisplay:10.37,2013-09-03 10:50:00,
2013-09-03 06:55:00,65.9,63.5,29.80,West,266,0.0,0.0,92,0.00,,SCT,0.00,5.0,WeatherDisplay:10.37,2013-09-03 10:55:00,
2013-09-03 07:00:00,65.9,63.5,29.81,West,266,0.0,1.0,92,0.00,,SCT,0.00,0.0,WeatherDisplay:10.37,2013-09-03 11:00:00,
2013-09-03 07:05:00,65.9,63.5,29.81,West,266,0.0,1.0,92,0.00,,SCT,0.00,0.0,WeatherDisplay:10.37,2013-09-03 11:05:00,
2013-09-03 07:10:00,66.0,63.6,29.82,West,266,0.0,0.0,92,0.00,,SCT,0.00,5.0,WeatherDisplay:10.37,2013-09-03 11:10:00,
2013-09-03 07:15:00,66.0,63.6,29.81,West,266,0.0,0.0,92,0.00,,SCT,0.00,9.0,WeatherDisplay:10.37,2013-09-03 11:15:00,
2013-09-03 07:20:00,66.0,63.6,29.81,West,266,0.0,0.0,92,0.00,,SCT,0.00,12.0,WeatherDisplay:10.37,2013-09-03 11:20:00,
2013-09-03 07:25:00,66.0,63.6,29.81,West,266,0.0,0.0,92,0.00,BKN,SCT,0.00,16.0,WeatherDisplay:10.37,2013-09-03 11:25:00,
2013-09-03 07:30:00,66.1,63.7,29.81,West,266,0.0,0.0,92,0.00,BKN,SCT,0.00,19.0,WeatherDisplay:10.37,2013-09-03 11:30:00,
2013-09-03 07:35:00,66.2,63.8,29.82,West,266,0.0,0.0,92,0.00,BKN,SCT,0.00,28.0,WeatherDisplay:10.37,2013-09-03 11:35:00,
2013-09-03 07:40:00,66.4,64.0,29.82,West,266,1.0,2.0,92,0.00,BKN,SCT,0.00,39.0,WeatherDisplay:10.37,2013-09-03 11:40:00,
2013-09-03 07:45:00,66.6,64.5,29.82,West,266,0.0,3.0,93,0.00,BKN,SCT,0.00,44.0,WeatherDisplay:10.37,2013-09-03 11:45:00,
2013-09-03 07:50:00,66.7,64.6,29.83,West,266,0.0,0.0,93,0.00,BKN,SCT,0.00,51.0,WeatherDisplay:10.37,2013-09-03 11:50:00,
2013-09-03 07:55:00,66.7,64.3,29.83,West,266,0.0,0.0,92,0.00,BKN,SCT,0.00,62.0,WeatherDisplay:10.37,2013-09-03 11:55:00,
2013-09-03 08:00:00,66.8,64.4,29.83,West,266,1.0,3.0,92,0.00,BKN,SCT,0.00,63.0,WeatherDisplay:10.37,2013-09-03 12:00:00,
2013-09-03 08:05:00,67.0,64.9,29.84,West,266,2.0,5.0,93,0.00,BKN,SCT,0.00,47.0,WeatherDisplay:10.37,2013-09-03 12:05:00,
2013-09-03 08:10:00,67.4,65.3,29.84,West,266,1.0,5.0,93,0.00,BKN,SCT,0.00,40.0,WeatherDisplay:10.37,2013-09-03 12:10:00,
2013-09-03 08:15:00,67.5,65.4,29.84,West,266,1.0,3.0,93,0.00,BKN,SCT,0.00,44.0,WeatherDisplay:10.37,2013-09-03 12:15:00,
2013-09-03 08:20:00,67.6,65.5,29.84,West,266,0.0,0.0,93,0.00,BKN,SCT,0.00,60.0,WeatherDisplay:10.37,2013-09-03 12:20:00,
2013-09-03 08:25:00,67.6,65.5,29.82,West,266,2.0,4.0,93,0.00,BKN,SCT,0.00,90.0,WeatherDisplay:10.37,2013-09-03 12:25:00,
2013-09-03 08:30:00,67.8,65.7,29.83,West,266,1.0,4.0,93,0.00,BKN,SCT,0.00,98.0,WeatherDisplay:10.37,2013-09-03 12:30:00,
2013-09-03 08:35:00,68.0,65.9,29.84,West,266,0.0,3.0,93,0.00,BKN,SCT,0.00,107.0,WeatherDisplay:10.37,2013-09-03 12:35:00,
2013-09-03 08:40:00,68.2,66.1,29.84,West,266,0.0,2.0,93,0.00,BKN,SCT,0.00,113.0,WeatherDisplay:10.37,2013-09-03 12:40:00,
2013-09-03 08:45:00,68.5,66.4,29.84,West,266,1.0,4.0,93,0.00,BKN,SCT,0.00,116.0,WeatherDisplay:10.37,2013-09-03 12:45:00,
2013-09-03 08:50:00,68.6,66.5,29.84,West,266,0.0,2.0,93,0.00,BKN,SCT,0.00,118.0,WeatherDisplay:10.37,2013-09-03 12:50:00,
2013-09-03 08:55:00,68.8,66.7,29.84,West,266,0.0,2.0,93,0.00,BKN,SCT,0.00,121.0,WeatherDisplay:10.37,2013-09-03 12:55:00,
2013-09-03 09:00:00,68.9,66.8,29.84,West,266,0.0,0.0,93,0.00,BKN,SCT,0.00,125.0,WeatherDisplay:10.37,2013-09-03 13:00:00,
2013-09-03 09:05:00,69.1,67.0,29.84,West,266,0.0,0.0,93,0.00,BKN,SCT,0.00,141.0,WeatherDisplay:10.37,2013-09-03 13:05:00,
2013-09-03 09:10:00,69.2,67.1,29.84,West,266,0.0,0.0,93,0.00,BKN,SCT,0.00,206.0,WeatherDisplay:10.37,2013-09-03 13:10:00,
2013-09-03 09:15:00,69.6,67.5,29.84,West,266,0.0,2.0,93,0.00,SCT,SCT,0.00,394.0,WeatherDisplay:10.37,2013-09-03 13:15:00,
2013-09-03 09:20:00,70.1,68.0,29.84,West,266,0.0,2.0,93,0.00,FEW,SCT,0.00,450.0,WeatherDisplay:10.37,2013-09-03 13:20:00,
2013-09-03 09:25:00,70.7,68.5,29.85,West,266,0.0,3.0,93,0.00,CLR,SCT,0.00,415.0,WeatherDisplay:10.37,2013-09-03 13:25:00,
2013-09-03 09:30:00,71.2,69.1,29.85,West,266,0.0,1.0,93,0.00,CLR,SCT,0.00,429.0,WeatherDisplay:10.37,2013-09-03 13:30:00,
2013-09-03 09:35:00,71.7,69.5,29.85,West,266,1.0,2.0,93,0.00,CLR,SCT,0.00,455.0,WeatherDisplay:10.37,2013-09-03 13:35:00,
2013-09-03 09:40:00,72.1,70.0,29.85,West,266,0.0,1.0,93,0.00,CLR,SCT,0.00,432.0,WeatherDisplay:10.37,2013-09-03 13:40:00,
2013-09-03 09:45:00,72.7,70.5,29.85,West,266,0.0,0.0,93,0.00,CLR,SCT,0.00,519.0,WeatherDisplay:10.37,2013-09-03 13:45:00,
2013-09-03 09:50:00,73.5,71.3,29.85,West,266,0.0,2.0,93,0.00,CLR,SCT,0.00,571.0,WeatherDisplay:10.37,2013-09-03 13:50:00,
2013-09-03 09:55:00,73.9,71.8,29.85,West,271,1.0,4.0,93,0.00,CLR,SCT,0.00,599.0,WeatherDisplay:10.37,2013-09-03 13:55:00,
2013-09-03 10:00:00,74.7,72.2,29.85,West,277,2.0,4.0,92,0.00,CLR,SCT,0.00,619.0,WeatherDisplay:10.37,2013-09-03 14:00:00,
2013-09-03 10:05:00,75.8,71.7,29.85,West,280,1.0,4.0,87,0.00,CLR,SCT,0.00,636.0,WeatherDisplay:10.37,2013-09-03 14:05:00,
2013-09-03 10:10:00,76.7,70.8,29.86,West,281,1.0,2.0,82,0.00,CLR,SCT,0.00,640.0,WeatherDisplay:10.37,2013-09-03 14:10:00,
2013-09-03 10:15:00,77.8,69.6,29.86,WNW,289,0.0,5.0,76,0.00,CLR,SCT,0.00,633.0,WeatherDisplay:10.37,2013-09-03 14:15:00,
2013-09-03 10:20:00,78.6,70.0,29.86,WNW,294,1.0,5.0,75,0.00,CLR,SCT,0.00,596.0,WeatherDisplay:10.37,2013-09-03 14:20:00,
2013-09-03 10:25:00,79.3,70.3,29.86,WNW,298,1.0,4.0,74,0.00,CLR,SCT,0.00,619.0,WeatherDisplay:10.37,2013-09-03 14:25:00,
2013-09-03 10:30:00,79.8,70.3,29.86,WNW,302,1.0,5.0,73,0.00,CLR,SCT,0.00,635.0,WeatherDisplay:10.37,2013-09-03 14:30:00,
2013-09-03 10:35:00,80.1,71.1,29.86,NW,305,1.0,4.0,74,0.00,CLR,SCT,0.00,647.0,WeatherDisplay:10.37,2013-09-03 14:35:00,
2013-09-03 10:40:00,80.4,71.3,29.86,NNW,328,2.0,5.0,74,0.00,CLR,SCT,0.00,657.0,WeatherDisplay:10.37,2013-09-03 14:40:00,
2013-09-03 10:45:00,80.6,71.5,29.87,NNW,335,1.0,6.0,74,0.00,CLR,SCT,0.00,657.0,WeatherDisplay:10.37,2013-09-03 14:45:00,
2013-09-03 10:50:00,80.9,71.0,29.87,NNW,338,2.0,6.0,72,0.00,CLR,SCT,0.00,686.0,WeatherDisplay:10.37,2013-09-03 14:50:00,
2013-09-03 10:55:00,81.1,70.8,29.87,NNW,339,3.0,6.0,71,0.00,CLR,SCT,0.00,719.0,WeatherDisplay:10.37,2013-09-03 14:55:00,
2013-09-03 11:00:00,81.4,70.7,29.87,NNW,335,3.0,7.0,70,0.00,CLR,SCT,0.00,742.0,WeatherDisplay:10.37,2013-09-03 15:00:00,
2013-09-03 11:05:00,81.7,70.9,29.87,NNW,334,2.0,7.0,70,0.00,CLR,SCT,0.00,826.0,WeatherDisplay:10.37,2013-09-03 15:05:00,
2013-09-03 11:10:00,81.8,70.2,29.87,NNW,330,1.0,7.0,68,0.00,CLR,SCT,0.00,949.0,WeatherDisplay:10.37,2013-09-03 15:10:00,
2013-09-03 11:15:00,82.0,70.8,29.87,NNW,330,3.0,8.0,69,0.00,CLR,SCT,0.00,867.0,WeatherDisplay:10.37,2013-09-03 15:15:00,
2013-09-03 11:20:00,82.1,69.6,29.88,North,353,3.0,8.0,66,0.00,FEW,SCT,0.00,504.0,WeatherDisplay:10.37,2013-09-03 15:20:00,
2013-09-03 11:25:00,82.2,71.0,29.87,NNE,15,1.0,5.0,69,0.00,FEW,SCT,0.00,613.0,WeatherDisplay:10.37,2013-09-03 15:25:00,
2013-09-03 11:30:00,82.4,70.8,29.87,NNE,18,1.0,5.0,68,0.00,SCT,SCT,0.00,480.0,WeatherDisplay:10.37,2013-09-03 15:30:00,
2013-09-03 11:35:00,82.6,70.1,29.87,NNE,17,0.0,4.0,66,0.00,SCT,SCT,0.00,520.0,WeatherDisplay:10.37,2013-09-03 15:35:00,
2013-09-03 11:40:00,82.5,70.5,29.87,NNE,17,1.0,5.0,67,0.00,SCT,SCT,0.00,545.0,WeatherDisplay:10.37,2013-09-03 15:40:00,
2013-09-03 11:45:00,82.6,70.1,29.87,NNE,17,1.0,5.0,66,0.00,SCT,SCT,0.00,531.0,WeatherDisplay:10.37,2013-09-03 15:45:00,
2013-09-03 11:50:00,82.7,70.2,29.87,NNE,16,2.0,5.0,66,0.00,SCT,SCT,0.00,629.0,WeatherDisplay:10.37,2013-09-03 15:50:00,
2013-09-03 11:55:00,82.8,69.9,29.87,NNE,12,1.0,6.0,65,0.00,FEW,SCT,0.00,888.0,WeatherDisplay:10.37,2013-09-03 15:55:00,
2013-09-03 12:00:00,83.1,70.1,29.87,NNE,20,3.0,7.0,65,0.00,CLR,SCT,0.00,868.0,WeatherDisplay:10.37,2013-09-03 16:00:00,
2013-09-03 12:05:00,83.3,70.3,29.87,NNE,25,1.0,4.0,65,0.00,CLR,SCT,0.00,861.0,WeatherDisplay:10.37,2013-09-03 16:05:00,
2013-09-03 12:10:00,83.5,70.0,29.87,NE,40,1.0,6.0,64,0.00,CLR,SCT,0.00,875.0,WeatherDisplay:10.37,2013-09-03 16:10:00,
2013-09-03 12:15:00,83.7,70.2,29.86,NE,47,1.0,5.0,64,0.00,CLR,SCT,0.00,928.0,WeatherDisplay:10.37,2013-09-03 16:15:00,
2013-09-03 12:20:00,83.8,70.3,29.86,NE,45,1.0,3.0,64,0.00,CLR,SCT,0.00,977.0,WeatherDisplay:10.37,2013-09-03 16:20:00,
2013-09-03 12:25:00,83.8,69.9,29.86,NNE,28,3.0,7.0,63,0.00,CLR,SCT,0.00,918.0,WeatherDisplay:10.37,2013-09-03 16:25:00,
2013-09-03 12:30:00,83.9,69.5,29.86,NNE,14,2.0,8.0,62,0.00,CLR,SCT,0.00,902.0,WeatherDisplay:10.37,2013-09-03 16:30:00,
2013-09-03 12:35:00,84.0,70.0,29.86,NNW,341,1.0,7.0,63,0.00,CLR,SCT,0.00,891.0,WeatherDisplay:10.37,2013-09-03 16:35:00,
2013-09-03 12:40:00,84.1,69.2,29.86,NW,323,6.0,12.0,61,0.00,CLR,SCT,0.00,891.0,WeatherDisplay:10.37,2013-09-03 16:40:00,
2013-09-03 12:45:00,84.2,69.8,29.86,NW,324,5.0,12.0,62,0.00,CLR,SCT,0.00,902.0,WeatherDisplay:10.37,2013-09-03 16:45:00,
2013-09-03 12:50:00,84.2,69.8,29.86,NW,323,5.0,8.0,62,0.00,CLR,SCT,0.00,902.0,WeatherDisplay:10.37,2013-09-03 16:50:00,
2013-09-03 12:55:00,84.2,69.8,29.86,WNW,300,2.0,12.0,62,0.00,CLR,SCT,0.00,923.0,WeatherDisplay:10.37,2013-09-03 16:55:00,
2013-09-03 13:00:00,84.4,70.9,29.86,West,279,3.0,8.0,64,0.00,CLR,SCT,0.00,907.0,WeatherDisplay:10.37,2013-09-03 17:00:00,
2013-09-03 13:05:00,84.6,71.1,29.86,WNW,296,2.0,7.0,64,0.00,FEW,SCT,0.00,849.0,WeatherDisplay:10.37,2013-09-03 17:05:00,
2013-09-03 13:10:00,84.5,69.6,29.86,NNW,331,2.0,6.0,61,0.00,FEW,SCT,0.00,932.0,WeatherDisplay:10.37,2013-09-03 17:10:00,
2013-09-03 13:15:00,84.5,71.0,29.85,NNW,343,3.0,9.0,64,0.00,FEW,SCT,0.00,907.0,WeatherDisplay:10.37,2013-09-03 17:15:00,
2013-09-03 13:20:00,84.5,70.0,29.85,NNW,327,3.0,9.0,62,0.00,CLR,SCT,0.00,911.0,WeatherDisplay:10.37,2013-09-03 17:20:00,
2013-09-03 13:25:00,84.6,70.6,29.85,NW,324,3.0,8.0,63,0.00,CLR,SCT,0.00,921.0,WeatherDisplay:10.37,2013-09-03 17:25:00,
2013-09-03 13:30:00,84.6,70.6,29.85,NW,322,3.0,7.0,63,0.00,CLR,SCT,0.00,976.0,WeatherDisplay:10.37,2013-09-03 17:30:00,
2013-09-03 13:35:00,84.7,71.6,29.85,NNW,334,1.0,7.0,65,0.00,CLR,SCT,0.00,976.0,WeatherDisplay:10.37,2013-09-03 17:35:00,
2013-09-03 13:40:00,84.9,71.4,29.85,North,351,1.0,9.0,64,0.00,CLR,SCT,0.00,969.0,WeatherDisplay:10.37,2013-09-03 17:40:00,
2013-09-03 13:45:00,85.0,70.5,29.85,North,356,3.0,8.0,62,0.00,FEW,SCT,0.00,230.0,WeatherDisplay:10.37,2013-09-03 17:45:00,
2013-09-03 13:50:00,84.8,71.3,29.85,North,354,3.0,6.0,64,0.00,SCT,SCT,0.00,958.0,WeatherDisplay:10.37,2013-09-03 17:50:00,
2013-09-03 13:55:00,84.8,70.3,29.85,NNW,334,5.0,7.0,62,0.00,FEW,SCT,0.00,1004.0,WeatherDisplay:10.37,2013-09-03 17:55:00,
2013-09-03 14:00:00,84.9,70.9,29.85,NNW,336,3.0,8.0,63,0.00,CLR,SCT,0.00,933.0,WeatherDisplay:10.37,2013-09-03 18:00:00,
2013-09-03 14:10:00,85.2,69.8,29.85,NNW,331,5.0,9.0,60,0.00,CLR,SCT,0.00,933.0,WeatherDisplay:10.37,2013-09-03 18:10:00,
2013-09-03 14:15:00,85.3,71.3,29.85,NNW,329,1.0,8.0,63,0.00,CLR,SCT,0.00,947.0,WeatherDisplay:10.37,2013-09-03 18:15:00,
2013-09-03 14:20:00,85.4,70.4,29.85,NW,312,5.0,8.0,61,0.00,CLR,SCT,0.00,976.0,WeatherDisplay:10.37,2013-09-03 18:20:00,
2013-09-03 14:25:00,85.6,70.6,29.84,NW,311,3.0,7.0,61,0.00,CLR,SCT,0.00,1034.0,WeatherDisplay:10.37,2013-09-03 18:25:00,
2013-09-03 14:30:00,85.7,69.2,29.84,NW,318,6.0,9.0,58,0.00,CLR,SCT,0.00,283.0,WeatherDisplay:10.37,2013-09-03 18:30:00,
2013-09-03 14:35:00,85.5,70.0,29.84,NW,317,2.0,7.0,60,0.00,CLR,SCT,0.00,1027.0,WeatherDisplay:10.37,2013-09-03 18:35:00,
2013-09-03 14:40:00,85.2,69.7,29.84,NNW,332,5.0,7.0,60,0.00,SCT,SCT,0.00,508.0,WeatherDisplay:10.37,2013-09-03 18:40:00,
2013-09-03 14:50:00,84.2,69.8,29.84,NNW,345,5.0,7.0,62,0.00,SCT,SCT,0.00,932.0,WeatherDisplay:10.37,2013-09-03 18:50:00,
2013-09-03 14:55:00,84.4,71.8,29.84,WNW,302,2.0,8.0,66,0.00,FEW,SCT,0.00,944.0,WeatherDisplay:10.37,2013-09-03 18:55:00,
2013-09-03 15:00:00,84.8,71.3,29.84,WNW,285,6.0,8.0,64,0.00,CLR,SCT,0.00,904.0,WeatherDisplay:10.37,2013-09-03 19:00:00,
2013-09-03 15:05:00,84.8,68.9,29.84,NW,315,2.0,9.0,59,0.00,SCT,SCT,0.00,236.0,WeatherDisplay:10.37,2013-09-03 19:05:00,
2013-09-03 15:10:00,84.5,70.0,29.84,NNW,338,2.0,5.0,62,0.00,BKN,SCT,0.00,236.0,WeatherDisplay:10.37,2013-09-03 19:10:00,
2013-09-03 15:15:00,84.3,70.3,29.84,NE,36,1.0,4.0,63,0.00,BKN,SCT,0.00,206.0,WeatherDisplay:10.37,2013-09-03 19:15:00,
2013-09-03 15:20:00,84.1,70.1,29.83,NNE,21,2.0,6.0,63,0.00,SCT,SCT,0.00,872.0,WeatherDisplay:10.37,2013-09-03 19:20:00,
2013-09-03 15:25:00,84.2,69.3,29.83,NW,306,2.0,5.0,61,0.00,SCT,SCT,0.00,146.0,WeatherDisplay:10.37,2013-09-03 19:25:00,
2013-09-03 15:30:00,84.1,70.1,29.83,WNW,293,0.0,4.0,63,0.00,SCT,SCT,0.00,812.0,WeatherDisplay:10.37,2013-09-03 19:30:00,
2013-09-03 15:35:00,84.2,69.8,29.82,WNW,286,2.0,7.0,62,0.00,SCT,SCT,0.00,798.0,WeatherDisplay:10.37,2013-09-03 19:35:00,
2013-09-03 15:40:00,84.5,70.1,29.83,WNW,289,3.0,6.0,62,0.00,CLR,SCT,0.00,780.0,WeatherDisplay:10.37,2013-09-03 19:40:00,
2013-09-03 15:50:00,85.3,68.4,29.83,NW,305,6.0,9.0,57,0.00,CLR,SCT,0.00,756.0,WeatherDisplay:10.37,2013-09-03 19:50:00,
2013-09-03 16:00:00,85.8,68.3,29.82,West,277,5.0,12.0,56,0.00,CLR,SCT,0.00,733.0,WeatherDisplay:10.37,2013-09-03 20:00:00,
2013-09-03 16:05:00,86.0,68.5,29.82,West,269,3.0,9.0,56,0.00,CLR,SCT,0.00,715.0,WeatherDisplay:10.37,2013-09-03 20:05:00,
2013-09-03 16:10:00,86.2,68.7,29.82,West,266,3.0,8.0,56,0.00,CLR,SCT,0.00,696.0,WeatherDisplay:10.37,2013-09-03 20:10:00,
2013-09-03 16:20:00,86.3,68.2,29.82,WNW,285,1.0,7.0,55,0.00,CLR,SCT,0.00,693.0,WeatherDisplay:10.37,2013-09-03 20:20:00,
2013-09-03 16:30:00,86.2,67.1,29.82,NW,306,2.0,9.0,53,0.00,CLR,SCT,0.00,650.0,WeatherDisplay:10.37,2013-09-03 20:30:00,
2013-09-03 16:35:00,86.2,67.6,29.82,WNW,301,2.0,5.0,54,0.00,CLR,SCT,0.00,626.0,WeatherDisplay:10.37,2013-09-03 20:35:00,
2013-09-03 16:40:00,86.2,67.1,29.82,WNW,295,2.0,8.0,53,0.00,CLR,SCT,0.00,617.0,WeatherDisplay:10.37,2013-09-03 20:40:00,
2013-09-03 16:45:00,86.3,67.2,29.82,WNW,286,2.0,7.0,53,0.00,CLR,SCT,0.00,596.0,WeatherDisplay:10.37,2013-09-03 20:45:00,
2013-09-03 16:55:00,86.5,67.3,29.82,NW,304,2.0,4.0,53,0.00,CLR,SCT,0.00,563.0,WeatherDisplay:10.37,2013-09-03 20:55:00,
2013-09-03 17:00:00,86.6,66.9,29.82,NW,305,3.0,6.0,52,0.00,CLR,SCT,0.00,548.0,WeatherDisplay:10.37,2013-09-03 21:00:00,
2013-09-03 17:05:00,86.6,66.9,29.82,NW,319,2.0,8.0,52,0.00,CLR,SCT,0.00,524.0,WeatherDisplay:10.37,2013-09-03 21:05:00,
2013-09-03 17:10:00,86.5,67.3,29.82,NW,322,2.0,6.0,53,0.00,CLR,SCT,0.00,501.0,WeatherDisplay:10.37,2013-09-03 21:10:00,
2013-09-03 17:15:00,86.5,67.8,29.82,NW,317,1.0,5.0,54,0.00,CLR,SCT,0.00,492.0,WeatherDisplay:10.37,2013-09-03 21:15:00,
2013-09-03 17:20:00,86.5,67.3,29.82,NW,315,2.0,7.0,53,0.00,CLR,SCT,0.00,476.0,WeatherDisplay:10.37,2013-09-03 21:20:00,
2013-09-03 17:25:00,86.5,66.8,29.82,NW,314,2.0,5.0,52,0.00,CLR,SCT,0.00,457.0,WeatherDisplay:10.37,2013-09-03 21:25:00,
2013-09-03 17:30:00,86.5,67.9,29.82,NW,312,3.0,7.0,54,0.00,CLR,SCT,0.00,441.0,WeatherDisplay:10.37,2013-09-03 21:30:00,
2013-09-03 17:35:00,86.5,67.3,29.82,NW,307,2.0,4.0,53,0.00,CLR,SCT,0.00,425.0,WeatherDisplay:10.37,2013-09-03 21:35:00,
2013-09-03 17:40:00,86.4,67.3,29.82,NW,305,5.0,7.0,53,0.00,CLR,SCT,0.00,415.0,WeatherDisplay:10.37,2013-09-03 21:40:00,
2013-09-03 17:45:00,86.2,67.1,29.83,WNW,300,3.0,7.0,53,0.00,CLR,SCT,0.00,396.0,WeatherDisplay:10.37,2013-09-03 21:45:00,
2013-09-03 17:50:00,86.2,68.1,29.83,WNW,291,2.0,5.0,55,0.00,CLR,SCT,0.00,371.0,WeatherDisplay:10.37,2013-09-03 21:50:00,
2013-09-03 17:55:00,86.2,68.7,29.83,WNW,285,1.0,4.0,56,0.00,CLR,SCT,0.00,355.0,WeatherDisplay:10.37,2013-09-03 21:55:00,
2013-09-03 18:00:00,86.3,68.8,29.83,West,273,0.0,7.0,56,0.00,CLR,SCT,0.00,338.0,WeatherDisplay:10.37,2013-09-03 22:00:00,
2013-09-03 18:05:00,86.2,69.2,29.82,West,270,1.0,5.0,57,0.00,CLR,SCT,0.00,320.0,WeatherDisplay:10.37,2013-09-03 22:05:00,
2013-09-03 18:10:00,86.2,68.7,29.83,West,271,2.0,4.0,56,0.00,CLR,SCT,0.00,301.0,WeatherDisplay:10.37,2013-09-03 22:10:00,
2013-09-03 18:15:00,86.0,68.0,29.83,West,271,1.0,5.0,55,0.00,CLR,SCT,0.00,287.0,WeatherDisplay:10.37,2013-09-03 22:15:00,
2013-09-03 18:20:00,85.9,68.4,29.83,West,271,1.0,3.0,56,0.00,CLR,SCT,0.00,267.0,WeatherDisplay:10.37,2013-09-03 22:20:00,
2013-09-03 18:25:00,85.9,68.9,29.83,West,271,0.0,4.0,57,0.00,CLR,SCT,0.00,250.0,WeatherDisplay:10.37,2013-09-03 22:25:00,
2013-09-03 18:30:00,85.9,69.4,29.83,West,271,0.0,1.0,58,0.00,CLR,SCT,0.00,232.0,WeatherDisplay:10.37,2013-09-03 22:30:00,
2013-09-03 18:40:00,86.0,70.5,29.83,West,271,0.0,1.0,60,0.00,CLR,SCT,0.00,197.0,WeatherDisplay:10.37,2013-09-03 22:40:00,
2013-09-03 18:45:00,86.0,69.5,29.83,West,271,0.0,1.0,58,0.00,CLR,SCT,0.00,178.0,WeatherDisplay:10.37,2013-09-03 22:45:00,
2013-09-03 18:50:00,85.9,69.9,29.83,West,271,0.0,0.0,59,0.00,CLR,SCT,0.00,158.0,WeatherDisplay:10.37,2013-09-03 22:50:00,
2013-09-03 18:55:00,85.8,70.3,29.84,West,271,0.0,0.0,60,0.00,CLR,SCT,0.00,141.0,WeatherDisplay:10.37,2013-09-03 22:55:00,
2013-09-03 19:00:00,85.7,72.6,29.84,West,271,0.0,0.0,65,0.00,CLR,SCT,0.00,127.0,WeatherDisplay:10.37,2013-09-03 23:00:00,
2013-09-03 19:05:00,85.6,73.8,29.84,West,271,0.0,0.0,68,0.00,CLR,SCT,0.00,114.0,WeatherDisplay:10.37,2013-09-03 23:05:00,
2013-09-03 19:10:00,85.5,73.3,29.84,West,271,0.0,1.0,67,0.00,CLR,SCT,0.00,102.0,WeatherDisplay:10.37,2013-09-03 23:10:00,
2013-09-03 19:15:00,85.2,73.4,29.84,West,271,0.0,0.0,68,0.00,FEW,SCT,0.00,84.0,WeatherDisplay:10.37,2013-09-03 23:15:00,
2013-09-03 19:20:00,84.3,72.2,29.84,West,271,0.0,0.0,67,0.00,FEW,SCT,0.00,70.0,WeatherDisplay:10.37,2013-09-03 23:20:00,
2013-09-03 19:25:00,83.4,72.6,29.84,West,271,0.0,0.0,70,0.00,SCT,SCT,0.00,49.0,WeatherDisplay:10.37,2013-09-03 23:25:00,
2013-09-03 19:30:00,82.7,72.3,29.84,West,271,0.0,0.0,71,0.00,SCT,SCT,0.00,37.0,WeatherDisplay:10.37,2013-09-03 23:30:00,
2013-09-03 19:35:00,81.7,72.2,29.85,West,271,0.0,0.0,73,0.00,SCT,SCT,0.00,19.0,WeatherDisplay:10.37,2013-09-03 23:35:00,
2013-09-03 19:40:00,80.8,72.1,29.85,West,271,0.0,0.0,75,0.00,SCT,SCT,0.00,11.0,WeatherDisplay:10.37,2013-09-03 23:40:00,
2013-09-03 19:45:00,79.8,71.5,29.85,West,271,0.0,0.0,76,0.00,SCT,SCT,0.00,5.0,WeatherDisplay:10.37,2013-09-03 23:45:00,
2013-09-03 19:50:00,78.9,71.1,29.86,West,271,0.0,0.0,77,0.00,SCT,SCT,0.00,0.0,WeatherDisplay:10.37,2013-09-03 23:50:00,
2013-09-03 19:55:00,78.1,71.1,29.86,West,271,0.0,0.0,79,0.00,SCT,SCT,0.00,0.0,WeatherDisplay:10.37,2013-09-03 23:55:00,
2013-09-03 20:00:00,77.3,70.3,29.86,West,271,0.0,0.0,79,0.00,SCT,SCT,0.00,0.0,WeatherDisplay:10.37,2013-09-04 00:00:00,
2013-09-03 20:05:00,76.8,70.1,29.86,West,271,0.0,0.0,80,0.00,SCT,SCT,0.00,0.0,WeatherDisplay:10.37,2013-09-04 00:05:00,
2013-09-03 20:10:00,76.3,70.0,29.86,West,271,0.0,2.0,81,0.00,SCT,SCT,0.00,0.0,WeatherDisplay:10.37,2013-09-04 00:10:00,
2013-09-03 20:15:00,75.5,69.3,29.87,West,271,0.0,1.0,81,0.00,SCT,SCT,0.00,0.0,WeatherDisplay:10.37,2013-09-04 00:15:00,
2013-09-03 20:20:00,74.9,69.1,29.87,West,271,0.0,0.0,82,0.00,SCT,SCT,0.00,0.0,WeatherDisplay:10.37,2013-09-04 00:20:00,
2013-09-03 20:30:00,73.9,67.7,29.88,West,271,0.0,3.0,81,0.00,SCT,SCT,0.00,0.0,WeatherDisplay:10.37,2013-09-04 00:30:00,
2013-09-03 20:40:00,73.4,65.7,29.88,West,271,0.0,2.0,77,0.00,SCT,SCT,0.00,0.0,WeatherDisplay:10.37,2013-09-04 00:40:00,
2013-09-03 20:45:00,73.4,66.1,29.88,West,271,0.0,2.0,78,0.00,SCT,SCT,0.00,0.0,WeatherDisplay:10.37,2013-09-04 00:45:00,
2013-09-03 20:50:00,73.4,66.5,29.89,West,271,0.0,0.0,79,0.00,SCT,SCT,0.00,0.0,WeatherDisplay:10.37,2013-09-04 00:50:00,
2013-09-03 20:55:00,73.4,66.5,29.89,West,271,0.0,0.0,79,0.00,SCT,SCT,0.00,0.0,WeatherDisplay:10.37,2013-09-04 00:55:00,
2013-09-03 21:00:00,73.3,66.8,29.89,West,271,0.0,0.0,80,0.00,SCT,SCT,0.00,0.0,WeatherDisplay:10.37,2013-09-04 01:00:00,
2013-09-03 21:05:00,73.2,67.0,29.90,West,271,0.0,0.0,81,0.00,SCT,SCT,0.00,0.0,WeatherDisplay:10.37,2013-09-04 01:05:00,
2013-09-03 21:10:00,73.0,66.4,29.90,West,271,0.0,1.0,80,0.00,SCT,SCT,0.00,0.0,WeatherDisplay:10.37,2013-09-04 01:10:00,
2013-09-03 21:15:00,72.8,66.3,29.90,West,271,0.0,0.0,80,0.00,SCT,SCT,0.00,0.0,WeatherDisplay:10.37,2013-09-04 01:15:00,
2013-09-03 21:20:00,72.7,66.2,29.91,West,271,0.0,0.0,80,0.00,SCT,SCT,0.00,0.0,WeatherDisplay:10.37,2013-09-04 01:20:00,
2013-09-03 21:25:00,72.5,66.3,29.91,West,271,0.0,0.0,81,0.00,SCT,SCT,0.00,0.0,WeatherDisplay:10.37,2013-09-04 01:25:00,
2013-09-03 21:30:00,72.2,66.1,29.91,West,271,0.0,0.0,81,0.00,SCT,SCT,0.00,0.0,WeatherDisplay:10.37,2013-09-04 01:30:00,
2013-09-03 21:35:00,71.9,66.1,29.92,West,271,0.0,1.0,82,0.00,SCT,SCT,0.00,0.0,WeatherDisplay:10.37,2013-09-04 01:35:00,
2013-09-03 21:40:00,71.7,65.9,29.92,West,271,0.0,0.0,82,0.00,SCT,SCT,0.00,0.0,WeatherDisplay:10.37,2013-09-04 01:40:00,
2013-09-03 21:45:00,71.4,65.6,29.92,West,271,0.0,0.0,82,0.00,SCT,SCT,0.00,0.0,WeatherDisplay:10.37,2013-09-04 01:45:00,
2013-09-03 21:50:00,71.0,65.6,29.92,West,271,0.0,0.0,83,0.00,SCT,SCT,0.00,0.0,WeatherDisplay:10.37,2013-09-04 01:50:00,
2013-09-03 21:55:00,70.8,65.7,29.92,West,271,0.0,0.0,84,0.00,SCT,SCT,0.00,0.0,WeatherDisplay:10.37,2013-09-04 01:55:00,
2013-09-03 22:00:00,70.4,65.3,29.92,West,271,0.0,1.0,84,0.00,SCT,SCT,0.00,0.0,WeatherDisplay:10.37,2013-09-04 02:00:00,
2013-09-03 22:05:00,70.2,65.5,29.93,West,271,0.0,0.0,85,0.00,SCT,SCT,0.00,0.0,WeatherDisplay:10.37,2013-09-04 02:05:00,
2013-09-03 22:10:00,70.0,65.2,29.93,West,271,0.0,0.0,85,0.00,SCT,SCT,0.00,0.0,WeatherDisplay:10.37,2013-09-04 02:10:00,
2013-09-03 22:15:00,69.8,65.1,29.93,West,271,0.0,0.0,85,0.00,SCT,SCT,0.00,0.0,WeatherDisplay:10.37,2013-09-04 02:15:00,
2013-09-03 22:20:00,69.6,64.9,29.93,West,271,0.0,0.0,85,0.00,SCT,SCT,0.00,0.0,WeatherDisplay:10.37,2013-09-04 02:20:00,
2013-09-03 22:25:00,69.3,64.9,29.93,West,271,0.0,0.0,86,0.00,SCT,SCT,0.00,0.0,WeatherDisplay:10.37,2013-09-04 02:25:00,
2013-09-03 22:30:00,68.9,64.9,29.93,West,271,0.0,0.0,87,0.00,SCT,SCT,0.00,0.0,WeatherDisplay:10.37,2013-09-04 02:30:00,
2013-09-03 22:35:00,68.7,64.7,29.93,West,271,0.0,0.0,87,0.00,SCT,SCT,0.00,0.0,WeatherDisplay:10.37,2013-09-04 02:35:00,
2013-09-03 22:40:00,68.6,64.6,29.93,West,271,0.0,0.0,87,0.00,SCT,SCT,0.00,0.0,WeatherDisplay:10.37,2013-09-04 02:40:00,
2013-09-03 22:45:00,68.4,64.4,29.93,West,271,0.0,0.0,87,0.00,SCT,SCT,0.00,0.0,WeatherDisplay:10.37,2013-09-04 02:45:00,
2013-09-03 22:50:00,68.2,64.2,29.93,West,271,0.0,0.0,87,0.00,SCT,SCT,0.00,0.0,WeatherDisplay:10.37,2013-09-04 02:50:00,
2013-09-03 22:55:00,68.0,64.3,29.93,West,271,0.0,0.0,88,0.00,SCT,SCT,0.00,0.0,WeatherDisplay:10.37,2013-09-04 02:55:00,